Weather History for KGTB - September, 2013

Change the Weather History Date:

Saturday, September 28, 2013

  Actual Average Record
Temperature  
Mean Temperature 56 °F -  
Max Temperature 73 °F 61 °F 80 °F (1999)
Min Temperature 41 °F 42 °F 28 °F (2000)
Degree Days  
Heating Degree Days 8    
Growing Degree Days 6 (Base 50)    
Moisture  
Dew Point 47 °F    
Average Humidity 78    
Maximum Humidity 100    
Minimum Humidity 39    
Precipitation  
Precipitation 0.00 in - - ()
Sea Level Pressure  
Sea Level Pressure 30.29 in    
Wind  
Wind Speed 7 mph (SE)    
Max Wind Speed 15 mph    
Max Gust Speed 21 mph    
Visibility 9 miles    
Events      
Averages and records for this station are not official NWS values.
T = Trace of Precipitation, MM = Missing Value Source: NWS Daily Summary

Daily Weather History Graph

Daily Weather History Graph

Search for Another Location

Airport or City:

Trip Planner

Search our weather history database for the weather conditions in past years. The results will help you decide how hot, cold, wet, or windy it might be!

Date:

Astronomy

Sep. 28, 2013 Rise Set
Actual Time 6:57 AM EDT 6:48 PM EDT
Civil Twilight 6:28 AM EDT 7:17 PM EDT
Nautical Twilight 5:54 AM EDT 7:51 PM EDT
Astronomical Twilight 5:20 AM EDT 8:25 PM EDT
Moon 12:31 AM EDT (9/28) 3:16 PM EDT (9/28)
Length of Visible Light 12h 49m
Length of Day
11h 51m
Last Quarter, 36% of the Moon is Illuminated
Sep 28
Last Quarter
Oct 4
New
Oct 11
First Quarter
Oct 18
Full
Oct 26
Last Quarter

Hourly Weather History & Observations

Time (EDT) Temp. Windchill Dew Point Humidity Pressure Visibility Wind Dir Wind Speed Gust Speed Precip Events Conditions
12:58 AM 49.6 °F - 49.1 °F 98% 30.29 in 10.0 mi SE 6.9 mph - N/A   Clear
1:58 AM 49.1 °F - 48.9 °F 99% 30.30 in 10.0 mi SE 9.2 mph - N/A   Clear
2:58 AM 48.7 °F - 48.6 °F 99% 30.30 in 10.0 mi SSE 6.9 mph - N/A   Clear
3:58 AM 48.0 °F - 47.7 °F 99% 30.31 in 10.0 mi SE 8.1 mph - N/A   Clear
4:53 AM 42.8 °F - 42.8 °F 100% 30.30 in 4.0 mi Calm Calm - N/A   Clear
4:58 AM 43.9 °F - 43.9 °F 100% 30.31 in 2.0 mi Calm Calm - N/A   Clear
5:03 AM 46.4 °F - 46.4 °F 100% 30.31 in 1.8 mi East 1.2 mph - N/A   Clear
5:08 AM 46.4 °F - 46.4 °F 100% 30.31 in 3.0 mi SE 2.3 mph - N/A   Clear
5:58 AM 41.4 °F - 41.2 °F 99% 30.33 in 8.0 mi ESE 1.2 mph - N/A   Clear
6:08 AM 41.0 °F 38.0 °F 41.0 °F 100% 30.32 in 10.0 mi SSE 4.6 mph - N/A   Clear
6:58 AM 45.1 °F 40.8 °F 45.1 °F 100% 30.33 in 10.0 mi ESE 8.1 mph - N/A   Clear
7:58 AM 46.8 °F - 46.4 °F 99% 30.34 in 10.0 mi SE 5.8 mph - N/A   Clear
8:58 AM 52.7 °F - 48.7 °F 86% 30.35 in 10.0 mi SE 9.2 mph - N/A   Clear
9:58 AM 57.7 °F - 48.9 °F 72% 30.35 in 10.0 mi SE 12.7 mph - N/A   Clear
10:58 AM 61.9 °F - 50.4 °F 66% 30.34 in 10.0 mi SE 6.9 mph - N/A   Clear
11:58 AM 66.2 °F - 50.4 °F 57% 30.32 in 10.0 mi SE 6.9 mph - N/A   Clear
12:58 PM 69.3 °F - 49.3 °F 49% 30.30 in 10.0 mi SE 13.8 mph - N/A   Clear
1:58 PM 71.1 °F - 48.4 °F 44% 30.28 in 10.0 mi South 15.0 mph - N/A   Clear
2:58 PM 72.7 °F - 48.0 °F 42% 30.27 in 10.0 mi SE 9.2 mph 20.7 mph N/A   Clear
3:58 PM 72.7 °F - 46.2 °F 39% 30.25 in 10.0 mi SE 12.7 mph - N/A   Clear
4:58 PM 72.7 °F - 46.8 °F 40% 30.24 in 10.0 mi SSE 6.9 mph - N/A   Clear
5:58 PM 70.7 °F - 47.5 °F 44% 30.25 in 10.0 mi South 6.9 mph - N/A   Clear
6:58 PM 63.1 °F - 48.9 °F 60% 30.24 in 10.0 mi South 5.8 mph - N/A   Clear
7:58 PM 56.5 °F - 49.3 °F 77% 30.24 in 10.0 mi SSW 3.5 mph - N/A   Clear
8:58 PM 57.0 °F - 50.0 °F 77% 30.24 in 10.0 mi SSE 5.8 mph - N/A   Clear
9:58 PM 55.8 °F - 49.3 °F 79% 30.23 in 10.0 mi SE 5.8 mph - N/A   Clear
10:58 PM 54.3 °F - 48.6 °F 81% 30.22 in 10.0 mi SSE 6.9 mph - N/A   Clear
11:58 PM 53.1 °F - 48.0 °F 83% 30.22 in 10.0 mi SE 9.2 mph - N/A   Clear